www.pogodaiklimat.ru

Погода и климат >> Архив погоды >> Россия >> Нижегородская область >> Дальнее Константиново


ПОГОДА в Дальнем Константиново

  • Прогноз погоды в Дальнем Константиново
  • Монитор погоды в Дальнем Константиново
  • Климат города

АРХИВ ПОГОДЫ в Дальнем Константиново

Время (UTC), дата Ветер
(напр.,м/с)
 
Видим.   Явления Облачность Т
(С)
Тd
(С)
f
(%)
Тe
(С)
Тes
(С)
Комфортность P
(гПа)
Po
(гПа)
Тmin
(С)
Tmax
(С)
R
(мм)
R24
(мм)
S
(см)
21 9.08 ЮЗ 1-2
{3}
4000 м ясно +9.9 +8.9 93 +9 +9 1025.2 1008.9
00 10.08 ЮЗ 1-1
{2}
4000 м ясно +8.5 +7.7 95 +8 +8 1025.6 1009.2
03 10.08 ЮЗ 1-2
{3}
10 км ясно +11.4 +9.2 86 +11 +12 1026.1 1009.8 +8.5
06 10.08 СЗ 2-2
{3}
10 км 1/0
[Cc]
+21.0 +12.1 57 +24 +32 комфорт 1025.8 1010.1
09 10.08 СЗ 3-5
{7}
10 км ясно +24.6 +13.3 49 +27 +37 жарко 1024.8 1009.3
12 10.08 СЗ 4-6
{9}
10 км 3/3 600 м
[Cu hum]
+26.1 +12.5 43 +28 +32 жарко 1023.2 1007.8
15 10.08 СЗ 3-4
{8}
10 км 4/0
[Ci fib]
+25.5 +12.3 44 +27 +28 жарко 1022.3 1007.0 +26.5
18 10.08 З 3-4
{7}
4000 м ясно +21.0 +13.3 61 +24 +24 комфорт 1022.0 1006.4
21 10.08 З 2-4
{5}
4000 м ясно +18.7 +13.4 71 +20 +20 1022.4 1006.7
00 11.08 З 2-3
{4}
4000 м ясно +16.8 +12.8 77 +17 +17 1022.2 1006.4
03 11.08 З 3-5
{5}
4000 м ясно +18.2 +13.6 75 +19 +19 1022.1 1006.4 +16.6
06 11.08 З 3-5
{7}
10 км 3/0
[Ci fib]
+22.6 +15.6 65 +27 +33 душно 1021.7 1006.2
09 11.08 СЗ 5-8
{8}
10 км 6/6 1000 м
[Cu hum]
+27.2 +14.0 44 +29 +32 жарко 1020.9 1005.6
12 11.08 СЗ 5-8
{9}
10 км ясно +27.6 +11.4 36 +28 +33 жарко 1019.5 1004.3
15 11.08 СЗ 3-6
{8}
10 км ясно +26.7 +11.1 38 +28 +29 жарко 1018.2 1002.9 +27.8
18 11.08 З 2-3
{6}
4000 м ясно +20.7 +12.4 59 +24 +24 комфорт 1018.3 1002.7
21 11.08 штиль 0
{3}
4000 м ясно +15.3 +12.2 82 +15 +15 1018.1 1002.2
00 12.08 ЮЗ 2-2
{2}
4000 м ясно +14.4 +11.8 84 +14 +14 1017.7 1001.8
03 12.08 ЮЗ 1-3
{4}
10 км ясно +15.7 +12.4 81 +16 +17 1017.2 1001.4 +13.6
06 12.08 ЮЗ 2-4
{4}
10 км ясно +23.6 +13.5 53 +26 +33 жарко 1015.6 1000.3
09 12.08 З 3-6
{9}
10 км ясно +27.0 +10.7 36 +28 +38 жарко 1014.6 999.4
12 12.08 З 3-6
{7}
10 км 1/0
[Ci fib]
+27.6 +9.2 31 +28 +34 жарко 1013.1 997.9
15 12.08 З 2-3
{9}
10 км 1/0
[Ci fib]
+27.3 +9.2 32 +27 +28 жарко 1011.5 996.3 +28.0
18 12.08 ЮЗ 1-2
{5}
4000 м 1/0
[Ci fib]
+19.0 +13.7 71 +21 +21 комфорт 1011.0 995.4
21 12.08 ЮЗ 1-2
{3}
4000 м ясно +17.7 +12.7 73 +19 +19 1010.6 995.0
00 13.08 ЮЗ 2-4
{4}
4000 м ясно +16.0 +12.5 80 +16 +16 1010.1 994.4
03 13.08 ЮЗ 2-2
{5}
10 км 8/0
[Ci fib]
+15.7 +12.6 82 +16 +16 1010.5 994.8 +14.4
06 13.08 З 3-5
{6}
10 км 4/0
[Ci fib]
+21.6 +11.0 51 +23 +29 комфорт 1010.3 994.8
09 13.08 З 4-8
{10}
10 км 8/8 1000 м
[Cu hum]
+23.9 +8.6 38 +25 +26 комфорт 1009.4 994.1
12 13.08 З 5-9
{11}
10 км 8/0
[Cs]
+24.1 +6.8 33 +24 +28 комфорт 1008.9 993.5
15 13.08 З 3-4
{11}
10 км 10/0
[As trans]
+21.5 +8.4 43 +23 +23 комфорт 1008.8 993.3 +24.5
18 13.08 З 1-3
{5}
4000 м 8/0
[Ac trans]
+18.2 +9.5 57 +20 +20 1009.0 993.4
21 13.08 З 2-4
{4}
4000 м 4/0
[Ac trans]
+15.8 +9.0 64 +16 +16 1009.2 993.5
00 14.08 З 2-3
{5}
4000 м 9/0
[Ac trans]
+14.7 +8.8 68 +14 +14 1009.8 993.9
03 14.08 Ю 1-2
{3}
10 км 3/0
[Ac trans]
+12.2 +9.4 83 +12 +13 1011.3 995.4 +12.1
06 14.08 З 3-6
{6}
10 км 8/0
[Ac cast]
+18.6 +10.9 61 +19 +22 1012.2 996.6
09 14.08 СЗ 4-8
{9}
10 км 6/6 600 м
[Cu med, cong]
+20.3 +9.2 49 +22 +25 комфорт 1012.8 997.3
12 14.08 СЗ 4-7
{9}
10 км 6/6 600 м
[Cu hum]
+22.4 +8.0 40 +24 +26 комфорт 1013.1 997.7
15 14.08 СЗ 3-5
{8}
10 км 1/1 1000 м
[Cu hum]
+22.0 +8.1 41 +23 +24 комфорт 1013.5 998.1 +23.0
18 14.08 ЮЗ 1-2
{5}
4000 м ясно +14.8 +10.4 75 +15 +15 1014.5 998.6
21 14.08 ЮЗ 1-2
{2}
4000 м ясно +12.3 +9.4 82 +12 +12 1015.4 999.4
00 15.08 ЮЗ 2-2
{3}
4000 м ясно +11.5 +8.9 84 +10 +10 1016.0 999.9
03 15.08 ЮЗ 1-2
{3}
10 км 8/0
[Ac cast]
+12.1 +8.9 81 +12 +12 1016.4 1000.4 +10.5
06 15.08 ЮЗ 2-5
{5}
10 км 3/0
[Ci fib]
+21.3 +11.2 53 +23 +30 комфорт 1015.7 1000.2
09 15.08 ЮЗ 3-6
{8}
10 км 8/3 1000 м
[Cu hum Ci fib]
+24.3 +8.8 37 +25 +31 комфорт 1014.9 999.6
12 15.08 ЮЗ 3-5
{9}
10 км 8/0
[Ac cuf]
+25.9 +10.9 39 +27 +30 жарко 1013.2 998.5
15 15.08 ЮЗ 4-9
{9}
10 км 10/0
[As op]
+24.6 +13.1 49 +27 +27 жарко 1012.5 997.2 +26.9
18 15.08 Ю 2-3
{9}
4000 м в посл. час ливневой дождь 8/0
[Ac cast]
+19.4 +15.9 80 +22 +22 комфорт 1011.6 996.1
21 15.08 З 3-4
{10}
4000 м {ливн. осадки} 10/10 600 м
[Sc]
+21.1 +13.6 62 +24 +24 комфорт 1010.8 995.3
00 16.08 ЮЗ 2-5
{6}
4000 м {ливн. осадки} 10/10 1000 м
[Sc]
+18.5 +14.9 80 +20 +20 1010.3 994.7
03 16.08 З 3-5
{7}
10 км 8/0
[Ac cast]
+18.5 +15.6 83 +19 +20 1010.9 995.3 +17.6 0.1
06 16.08 З 4-8
{8}
10 км 8/4 600 м
[Cu med, cong Ci fib]
+21.6 +16.7 74 +26 +28 душно 1010.8 995.4
09 16.08 З 5-8
{11}
10 км 4/4 600 м
[Cu med, cong]
+23.8 +15.1 58 +27 +30 жарко 1012.0 996.7
12 16.08 СЗ 4-6
{9}
10 км 4/4 600 м
[Cu med, cong]
+23.7 +15.4 60 +27 +30 жарко 1012.8 997.5
15 16.08 С 4-7
{9}
10 км 9/9 1000 м
[Sc]
+19.7 +15.0 74 +22 +22 комфорт 1014.3 998.8 +24.4
18 16.08 С 3-6
{8}
4000 м {ливн. осадки} 9/9 600 м
[Sc]
+16.3 +14.2 87 +16 +16 1016.4 1000.6

 

Местоположение метеостанции Дальнее Константиново (Нижегородская область, Россия): широта 55.80 долгота 44.08 высота над уровнем моря 133 м.

В архиве по умолчанию представлена погода в Дальнем Константиново за последнюю неделю. Архивные данные за месяц целиком и за предыдущие месяцы, начиная с января 2011 года, Вы можете получить, выбрав интересующий диапазон дат из раскрывающегося списка и нажав кнопку "Ввод!".


*Определитесь, кто Вы:
робот инопланетянин человек

Внимание! Время в таблицах - всемирное. Для получения местного времени необходимо прибавить поправку, которая в Дальнем Константиново равна 3 ч.

Смотрите также архив погоды в соседних городах и на ближайших метеорологических станциях:

Погода в Нижнем Новгороде аэропорт (Нижегородская область, Россия) (51 км)
Погода в Арзамасе (Нижегородская область, Россия) (51 км)
Погода в Нижнем Новгороде (Нижегородская область, Россия) (53 км)
Погода в Лысково (Нижегородская область, Россия) (64 км)
Погода в Павлово (Нижегородская область, Россия) (68 км)
Погода в Лукоянове (Нижегородская область, Россия) (90 км)
Погода в Балахне (Нижегородская область, Россия) (92 км)
Погода в Сергаче (Нижегородская область, Россия) (94 км)
Погода в Волжской ГМО (Нижегородская область, Россия) (106 км)
Погода в Семенове (Нижегородская область, Россия) (107 км)

Пояснения к столбцам:

Ветер - указаны скорость ветра в м/с - средняя за 10 мин, порывы в срок и между сроками (в фигурных скобках) и направление, откуда дует ветер: С - северный, СВ - северо-восточный, В - восточный, ЮВ - юго-восточный, Ю - южный, ЮЗ - юго-западный, З - западный, СЗ - северо-западный.
Видимость - горизонтальная дальность видимости в метрах или километрах. При видимости от 1 до 10 км при отсутствии осадков обычно наблюдается дымка, при ухудшении видимости до 1 км и менее - туман. В сухую погоду видимость может ухудшаться дымом, пылью или мглою.
Явления - указаны атмосферные явления, наблюдавшиеся в срок или в последний час перед сроком; фигурными скобками обозначены явления, наблюдавшиеся между сроками (за 1-3 часа до срока); квадратными скобками обозначены град или гололедные отложения с указанием их диаметра в мм.
Облачность - указаны через наклонную черту общая и нижняя облачность в баллах и высота нижней границы облаков в метрах; квадратными скобками обозначены формы облаков: Ci - перистые, Cs - перисто-слоистые, Cc - перисто-кучевые, Ac - высококучевые, As - высокослоистые, Sc - слоисто-кучевые, Ns - слоисто-дождевые, Cu - кучевые, Cb - кучево-дождевые. Подробнее классификацию облаков см. в Атласе облаков (PDF).
T - Температура воздуха - температура, измеренная на высоте 2 м над землей.
Td - Температура точки росы - температура, при понижении до которой содержащийся в воздухе водяной пар достигнет насыщения.
f - Относительная влажность воздуха - влажноcть воздуха, измеренная на высоте 2 м над землей.
Te - Эффективная температура - температура, которую ощущает одетый по сезону человек в тени. Характеристика душности погоды. При расчете учитывается влияние влажности воздуха и скорости ветра на теплоощущения человека.
Tes - Эффективная температура на солнце - температура, которую ощущает человек, с поправкой на солнечный нагрев. Характеристика знойности погоды. Зависит от высоты солнца над горизонтом, облачности и скорости ветра. Ночью, в пасмурную погоду, а также при ветре 12 м/с и более поправка равна нулю.
P - Атмосферное давление - приведенное к уровню моря атмосферное давление.
Po - Атмосферное давление - измеренное на уровне метеостанции атмосферное давление.
Tmin - Минимальная температура - минимум температуры воздуха на высоте 2 м над землей.
Tmax - Максимальная температура - максимум температуры воздуха на высоте 2 м над землей.
R - Количество осадков - Количество выпавших осадков за период времени, мм. При наведении курсора мыши на число - период времени, за который выпало указанное количество осадков.
R24 - Количество осадков - Количество выпавших осадков за 24 часа, мм.
S - Снежный покров - Высота снежного покрова, см. При наведении курсора мыши на число - состояние снежного покрова и степень покрытия местности в баллах.